[[{"header":{"parameterUnit":"m.s-1","parameterCategory":1,"la1":30.2991,"la2":30.254,"lo1":-89.0895,"lo2":-89.0444,"dy":0.0017,"dx":0.0017,"nx":28,"ny":28,"refTime":"2023-08-15T21:00:00:Z","depth":0,"parameterNumber":2,"parameterNumberName":"U-component_of_WINDS"},"data":[0,0,0,0,0,0,0,0,0,0,0,0,0,0,0,0,0,0,0,0,0,0,0,0,0,0,0,0,0,0,0,0,0,0,0,0,0,0,0,0,0,0,0,0,0,0,0,0,0,0,0,0,0,0,0,0,0,0,1.8535,1.8536,0,1.8635,1.8636,1.8637,1.8621,1.8619,1.8618,1.8616,1.8727,1.8732,1.8736,0,0,0,0,0,0,0,0,0,0,0,0,0,1.834,1.8344,1.8535,1.8536,1.8538,1.8635,1.8636,1.8638,1.8621,1.8619,1.8617,1.8615,1.8726,1.8731,1.8737,0,0,0,0,0,0,0,0,0,0,0,0,0,1.8431,1.8345,1.8535,1.8541,1.8542,1.8635,1.8636,1.8638,1.8622,1.8619,1.8617,1.8614,1.8724,1.8731,1.8738,1.8833,0,0,1.8759,1.8762,0,0,0,0,0,0,0,0,1.8426,1.8438,1.8539,1.8541,1.8543,1.8613,1.8608,1.8704,1.8623,1.8592,1.8616,1.8613,1.8692,1.8701,1.8726,1.8838,1.8843,1.8759,1.8763,1.8766,1.8768,0,0,0,0,0,0,0,1.842,1.8434,1.8575,1.854,1.8543,1.8542,1.8552,1.8626,1.8656,1.8595,1.8594,1.8605,1.8693,1.8719,1.8729,1.8844,1.8759,1.8765,1.8769,1.8772,1.9044,1.9047,0,0,0,0,0,0,1.841,1.8429,1.8572,1.8578,1.8476,1.8548,1.8559,1.8593,1.8655,1.8662,1.8607,1.8604,1.8709,1.8721,1.8732,1.8851,1.8766,1.8773,1.8777,1.9041,1.9045,1.9048,0,0,0,0,0,0,1.8406,1.8423,1.8568,1.8503,1.8521,1.8554,1.8592,1.8596,1.8623,1.8664,1.8671,1.8629,1.8707,1.8723,1.8808,1.8855,1.8776,1.8782,1.9037,1.9042,1.9046,1.9087,0,0,0,0,0,0,1.84,1.8422,1.8456,1.8504,1.8525,1.8639,1.8595,1.86,1.8634,1.8631,1.8686,1.8693,1.8707,1.8798,1.8815,1.8863,1.8787,1.9033,1.9039,1.9045,1.9082,1.9093,1.9102,0,0,0,0,0,1.8394,1.8464,1.8457,1.8475,1.8567,1.8641,1.8654,1.8665,1.8638,1.8674,1.8701,1.8691,1.8846,1.8807,1.8826,1.8877,1.9031,1.9038,1.9044,1.9078,1.9091,1.9102,0,0,0,0,0,0,1.8423,1.847,1.8464,1.8551,1.8592,1.8638,1.8684,1.8678,1.873,1.8725,1.874,1.8753,1.8841,1.8867,1.8822,1.8974,1.8935,1.8946,1.8954,1.8967,1.8976,1.897,1.8793,0,0,0,0,0,1.8439,1.8492,1.8532,1.8606,1.8626,1.8652,1.8684,1.869,1.8734,1.8752,1.8785,1.8831,1.8891,1.893,1.8986,1.9085,1.91,1.913,1.914,1.9148,1.9158,1.9217,1.9232,1.9071,1.9071,1.9071,0,0,1.8474,1.8506,1.8539,1.8612,1.8645,1.8703,1.8667,1.8729,1.8774,1.8763,1.8845,1.8872,1.8924,1.9018,1.9061,1.9043,1.9205,1.9156,1.9162,1.9169,1.9225,1.9241,1.9254,1.9076,1.9075,1.9074,0,0,1.8568,1.8596,1.8662,1.8695,1.8744,1.8761,1.8777,1.8825,1.8841,1.8924,1.8918,1.8973,1.9073,1.9112,1.9145,1.9256,1.9251,1.9275,1.9328,1.9385,1.9398,1.9409,1.9453,1.9468,1.9284,1.9284,1.9284,0,1.8606,1.869,1.8698,1.8761,1.8796,1.8786,1.8856,1.8888,1.8954,1.898,1.8957,1.9086,1.912,1.9225,1.9252,1.9278,1.93,1.927,1.9394,1.9406,1.9417,1.9459,1.9475,1.9287,1.9287,1.9287,1.9286,0,1.8737,1.8796,1.8844,1.8906,1.8946,1.9012,1.9033,1.9073,1.9075,1.9096,1.9183,1.9224,1.929,1.9315,1.9318,1.9421,1.9409,1.939,1.9352,1.9435,1.9475,1.9491,1.9291,1.929,1.9289,1.9289,0,0,1.8853,1.8919,1.8937,1.8966,1.902,1.9068,1.9136,1.9198,1.9234,1.928,1.9341,1.9427,1.9411,1.9449,1.9457,1.9506,1.9597,1.9482,1.9484,1.9505,1.9718,1.9734,1.9752,1.9592,1.9595,1.9597,1.9715,0,1.8955,1.9072,1.9081,1.9188,1.9245,1.9238,1.9297,1.9339,1.9361,1.9415,1.944,1.9502,1.9474,1.9497,1.9545,1.9575,1.964,1.9566,1.9653,1.9656,1.9643,1.9772,1.9789,1.9897,1.973,1.9732,1.9734,0,1.909,1.9139,1.925,1.9299,1.9324,1.9377,1.9437,1.9487,1.9536,1.9549,1.9591,1.9593,1.9667,1.9624,1.9729,1.9679,1.9715,1.9735,1.974,1.9751,1.9702,1.9791,1.9932,1.9949,1.9758,1.9756,1.9755,0,1.9168,1.9262,1.9342,1.9367,1.9425,1.9463,1.9489,1.9535,1.9573,1.9627,1.9653,1.9714,1.975,1.9799,1.982,1.9785,1.9926,1.9883,1.9942,1.9942,1.9974,1.9973,2.0127,1.9991,1.9991,1.9991,1.999,0,1.9283,1.9353,1.9378,1.9428,1.9507,1.9519,1.9598,1.9623,1.9665,1.9722,1.9719,1.9774,1.9795,1.9855,1.9871,1.9958,1.9973,1.9989,1.9993,1.9991,1.999,2.0017,2.0012,1.9995,1.9994,1.9993,1.9993,0,1.9385,1.9404,1.9491,1.9539,1.9552,1.9609,1.9652,1.9702,1.9722,1.9795,1.9813,1.9847,1.9917,1.9941,2.0026,2.0037,2.014,2.0136,2.0123,2.0125,2.0184,2.018,2.0364,2.0391,2.0234,2.0236,2.0237,0,1.9459,1.9512,1.9565,1.9602,1.963,1.9689,1.9728,1.9742,1.9783,1.9844,1.9888,1.9957,2.0013,2.0126,2.016,2.0226,2.0227,2.0287,2.0237,2.0234,2.0233,2.023,2.0238,2.0297,2.0299,2.03,2.0301,0,1.9589,1.9596,1.965,1.9709,1.9755,1.9803,1.9849,1.988,1.9902,1.9949,2.0019,2.0062,2.0149,2.022,2.0287,2.0319,2.0316,2.0316,2.0334,2.0334,2.0326,2.0336,2.0152,2.0313,2.0311,2.0311,2.031,2.031,1.9682,1.9731,1.9776,1.9838,1.9874,1.9917,1.9968,1.9994,2.0052,2.0122,2.0127,2.0205,2.0256,2.0346,2.0381,2.0444,2.0428,2.0453,2.046,2.0467,2.0473,2.0313,2.0456,2.0456,2.0455,2.0455,2.0455,0,1.9816,1.9845,1.9901,1.9965,2.0015,2.0004,2.0055,2.0099,2.0165,2.0211,2.0266,2.0349,2.0418,2.0457,2.0527,2.057,2.0571,2.0588,2.0587,2.0596,2.0481,2.0461,2.0587,2.0587,2.0587,2.0587,2.0587,2.0587,1.9892,1.9974,1.9987,2.0089,2.0118,2.0192,2.0223,2.0265,2.0302,2.0394,2.0449,2.0473,2.0519,2.0592,2.0656,2.0666,2.0694,2.0713,2.0723,2.0616,2.0603,2.059,2.0571,2.0718,2.0718,2.0832,2.0833,2.0834]},{"header":{"parameterUnit":"m.s-1","parameterCategory":1,"la1":30.2991,"la2":30.254,"lo1":-89.0895,"lo2":-89.0444,"dy":0.0017,"dx":0.0017,"nx":28,"ny":28,"refTime":"2023-08-15T21:00:00:Z","depth":0,"parameterNumber":3,"parameterNumberName":"V-component_of_WINDS"},"data":[0,0,0,0,0,0,0,0,0,0,0,0,0,0,0,0,0,0,0,0,0,0,0,0,0,0,0,0,0,0,0,0,0,0,0,0,0,0,0,0,0,0,0,0,0,0,0,0,0,0,0,0,0,0,0,0,0,0,2.7381,2.7383,0,2.7513,2.7514,2.7516,2.7541,2.754,2.7539,2.7538,2.7669,2.7673,2.7677,0,0,0,0,0,0,0,0,0,0,0,0,0,2.7145,2.7149,2.7381,2.7383,2.7384,2.7512,2.7514,2.7516,2.7541,2.754,2.7539,2.7538,2.7667,2.7672,2.7678,0,0,0,0,0,0,0,0,0,0,0,0,0,2.7259,2.715,2.7381,2.7413,2.7417,2.7512,2.7514,2.7516,2.7542,2.754,2.7539,2.7537,2.7665,2.7672,2.7678,2.775,0,0,2.7699,2.7702,0,0,0,0,0,0,0,0,2.7252,2.7267,2.7406,2.7411,2.7415,2.7509,2.7479,2.7595,2.7542,2.7494,2.7538,2.7536,2.7617,2.7627,2.7655,2.7756,2.7762,2.7699,2.7703,2.7706,2.7708,0,0,0,0,0,0,0,2.7244,2.7262,2.7433,2.7408,2.7414,2.7418,2.7432,2.7501,2.7562,2.7498,2.75,2.7516,2.7619,2.7649,2.7658,2.7764,2.7699,2.7705,2.7709,2.7712,2.7924,2.7926,0,0,0,0,0,0,2.7232,2.7255,2.7429,2.7437,2.7329,2.7423,2.744,2.748,2.7562,2.7573,2.7517,2.7516,2.7638,2.765,2.7663,2.7749,2.7706,2.7712,2.7716,2.7923,2.7925,2.7926,0,0,0,0,0,0,2.7227,2.7247,2.7424,2.7347,2.737,2.7429,2.7475,2.7484,2.7514,2.7576,2.7586,2.7537,2.7637,2.7654,2.7727,2.7753,2.7715,2.7721,2.7921,2.7923,2.7925,2.7922,0,0,0,0,0,0,2.722,2.7245,2.7275,2.7347,2.7374,2.7488,2.7477,2.7488,2.7526,2.7526,2.7597,2.7607,2.7637,2.7717,2.7734,2.7762,2.7727,2.7918,2.7922,2.7925,2.792,2.7924,2.7928,0,0,0,0,0,2.7211,2.7269,2.7276,2.7297,2.7413,2.749,2.7504,2.7539,2.7528,2.7557,2.7595,2.7605,2.7748,2.7725,2.7743,2.7774,2.7917,2.7921,2.7924,2.7919,2.7924,2.7928,0,0,0,0,0,0,2.7198,2.7279,2.7288,2.7372,2.7424,2.7494,2.7532,2.7544,2.7599,2.7597,2.7636,2.7652,2.7722,2.7756,2.7728,2.7845,2.7831,2.7839,2.782,2.7826,2.7829,2.7819,2.7732,0,0,0,0,0,2.7205,2.7263,2.733,2.7397,2.7422,2.7472,2.7507,2.7529,2.7584,2.7606,2.765,2.7701,2.7757,2.7794,2.7849,2.7925,2.7938,2.7955,2.7959,2.7961,2.7967,2.8005,2.8012,2.7939,2.7939,2.7938,0,0,2.722,2.7271,2.7305,2.7395,2.7438,2.7494,2.7491,2.7551,2.7592,2.7614,2.7686,2.772,2.7779,2.7853,2.7888,2.7883,2.799,2.7966,2.7968,2.7972,2.801,2.8017,2.8023,2.7941,2.7941,2.794,0,0,2.7275,2.7321,2.738,2.7422,2.7487,2.7519,2.7533,2.76,2.7624,2.7697,2.7713,2.7761,2.7858,2.7898,2.7931,2.7996,2.8005,2.8013,2.8032,2.8069,2.8075,2.808,2.81,2.8107,2.8018,2.8018,2.8018,0,2.7285,2.7372,2.7408,2.7467,2.7504,2.7527,2.7584,2.7623,2.7702,2.7726,2.7719,2.7838,2.788,2.7961,2.7977,2.8004,2.8018,2.8005,2.8071,2.8077,2.8082,2.8101,2.8109,2.8019,2.8019,2.8019,2.8019,0,2.7379,2.7438,2.7478,2.7553,2.7594,2.7653,2.7695,2.7732,2.7749,2.778,2.7851,2.7902,2.7965,2.7987,2.8004,2.8069,2.8064,2.8064,2.8051,2.8089,2.8107,2.8115,2.8019,2.8019,2.8019,2.8019,0,0,2.7431,2.7523,2.7537,2.7569,2.764,2.7685,2.7742,2.7805,2.7834,2.7887,2.7933,2.8012,2.8011,2.8049,2.807,2.8103,2.8146,2.8098,2.81,2.8103,2.8216,2.8214,2.8223,2.8153,2.8154,2.8156,2.821,0,2.7492,2.7597,2.7629,2.7715,2.7768,2.7788,2.7836,2.7883,2.7913,2.796,2.7993,2.8047,2.8044,2.8066,2.8099,2.8134,2.8169,2.8131,2.8193,2.8195,2.8176,2.8233,2.8233,2.8282,2.8218,2.8219,2.822,0,2.7579,2.7632,2.7723,2.7783,2.7806,2.785,2.7908,2.7954,2.8005,2.8025,2.8064,2.8082,2.8138,2.8122,2.8198,2.8171,2.8198,2.8219,2.8221,2.8228,2.8209,2.8238,2.8299,2.8305,2.8233,2.8232,2.8231,0,2.7603,2.7698,2.7764,2.7791,2.7864,2.7893,2.7924,2.7975,2.8009,2.8058,2.808,2.8136,2.8165,2.8206,2.8237,2.8223,2.8308,2.8296,2.8323,2.8322,2.834,2.8338,2.8404,2.836,2.836,2.836,2.836,0,2.7668,2.7722,2.7775,2.7816,2.7875,2.791,2.7967,2.7999,2.8043,2.8087,2.8107,2.8148,2.8187,2.8232,2.8256,2.8313,2.8327,2.8342,2.8347,2.8339,2.8337,2.8357,2.8353,2.8362,2.8362,2.8361,2.8361,0,2.7706,2.7744,2.7816,2.7878,2.7895,2.7936,2.7987,2.8025,2.8055,2.811,2.8125,2.8171,2.8224,2.8259,2.8327,2.8343,2.8404,2.841,2.8387,2.8389,2.8413,2.841,2.8493,2.8504,2.8454,2.8455,2.8455,0,2.7743,2.7785,2.7851,2.7882,2.7914,2.7965,2.7999,2.8033,2.8068,2.8128,2.8157,2.8212,2.8258,2.8341,2.8379,2.8429,2.8435,2.846,2.8443,2.8432,2.8432,2.8429,2.8431,2.8463,2.8463,2.8464,2.8464,0,2.7805,2.7821,2.7871,2.7926,2.7967,2.8012,2.8057,2.8081,2.8122,2.8159,2.8214,2.825,2.8318,2.8371,2.8424,2.8453,2.8464,2.8469,2.8477,2.8469,2.8453,2.8459,2.8392,2.8467,2.8467,2.8466,2.8466,2.8466,2.7842,2.7879,2.793,2.7983,2.802,2.8061,2.8099,2.8132,2.8179,2.8238,2.8255,2.8311,2.8357,2.843,2.846,2.8502,2.8499,2.8512,2.8515,2.8518,2.8516,2.8447,2.8512,2.8512,2.8512,2.8512,2.8512,0,2.7902,2.7935,2.7984,2.8046,2.8087,2.8095,2.8144,2.8177,2.8226,2.8269,2.8313,2.8373,2.8424,2.8464,2.8515,2.8541,2.8547,2.8553,2.855,2.8556,2.8517,2.8504,2.8547,2.8547,2.8547,2.8547,2.8547,2.8547,2.7938,2.7999,2.802,2.8098,2.8131,2.8187,2.8213,2.825,2.8284,2.8351,2.8393,2.8419,2.846,2.8513,2.8558,2.8568,2.8585,2.8589,2.86,2.8563,2.8559,2.8556,2.8543,2.8593,2.8593,2.8635,2.8636,2.8636]}]]